Regional Weather Roundup
Issued by NWS

Home | Current Version | Previous Version | Graphics & Text | Print | Product List | Glossary On
Versions: 1 2 3 4 5 6 7 8 9 10 11 12 13 14 15 16 17 18 19 20 21 22 23 24 25 26 27 28 29 30 31 32 33 34 35 36 37 38 39 40 41 42 43 44 45 46 47 48 49 50
000
ASUS43 KDMX 051607
RWRIA

WEATHER ROUNDUP FOR IOWA
NATIONAL WEATHER SERVICE DES MOINES IA
1100 AM CDT SUN JUL 05 2015

NOTE: "FAIR" INDICATES FEW OR NO CLOUDS BELOW 12,000 FEET WITH NO
SIGNIFICANT WEATHER AND/OR OBSTRUCTIONS TO VISIBILITY.

* - THESE STATIONS ARE NOT NWS STATIONS...THUS NOT UNDER NWS
QUALITY CONTROL.  THEY ALSO DO NOT REPORT WEATHER SUCH
AS PRECIPITATION OR FOG.

IAZ001>003-012>014-020>022-031>034-043>046-051700-
   NORTHWEST IOWA

CITY           SKY/WX    TMP DP  RH WIND       PRES   REMARKS
CARROLL *      MOSUNNY   75  68  78 S13       29.96F
CHEROKEE *     CLOUDY    73  68  83 S15       29.90F
DENISON *      PTSUNNY   73  68  83 SW8       29.95F
LE MARS *      SUNNY     75  70  83 VRB7      29.88F
ORANGE CITY *  SUNNY     73  66  78 S17       29.88F
SHELDON *      SUNNY     75  75 100 S14G23    29.86F
SIOUX CITY     CLOUDY    73  66  78 E6        29.85F
SPENCER        CLOUDY    73  64  73 S15       29.89F
STORM LAKE *   SUNNY     73  68  83 S18       29.93F
$$

IAZ055>058-069>071-079>083-090>094-051700-
   SOUTHWEST IOWA

CITY           SKY/WX    TMP DP  RH WIND       PRES   REMARKS
ATLANTIC *     MOSUNNY   79  70  73 S9        29.98S HX  81
AUDUBON *      SUNNY     81  72  74 S13       29.98F HX  84
CLARINDA *     SUNNY     79  70  73 S12       29.98R HX  81
COUNCIL BLFS * MOSUNNY   72  68  88 NW6       29.98R FOG
CRESTON *      SUNNY     77  68  73 S9        30.00S
HARLAN  *      MOSUNNY   77  75  94 S10       30.00S
LAMONI         PTSUNNY   80  69  69 S9        29.99F HX  83
RED OAK *      MOSUNNY   79  70  73 S12       29.96F HX  81
SHENANDOAH *   SUNNY     77  70  78 VRB6      29.96S
$$

IAZ047>049-059>061-072>074-084-051700-
   CENTRAL IOWA

CITY           SKY/WX    TMP DP  RH WIND       PRES   REMARKS
AMES           CLOUDY    75  66  73 S10       29.99F
ANKENY *       SUNNY     77  70  78 S9        29.99S
CHARITON *     SUNNY     77  70  78 S8        30.01S
DES MOINES     CLOUDY    80  68  66 S10       29.98F HX  83
GRINNELL*      PTSUNNY   77  66  69 S9        30.02F
KNOXVILLE *    SUNNY     79  68  69 S10       30.00S HX  81
MARSHALLTOWN   PTSUNNY   77  67  71 S12       30.00F
PELLA *        CLOUDY    81  72  74 S6        30.02F HX  84
PERRY *          N/A     79  68  69 S8        29.98S HX  81
$$

IAZ004>006-015-016-023>025-035-036-051700-
   NORTH CENTRAL IOWA

CITY           SKY/WX    TMP DP  RH WIND       PRES   REMARKS
ALGONA *       SUNNY     75  66  73 S18       29.93F
CLARION *      SUNNY     77  66  69 S13       29.97F
ESTHERVILLE    CLOUDY    73  65  75 S18G25    29.87F
FORT DODGE *   CLOUDY    75  64  69 S9        29.97F
MASON CITY     PTSUNNY   78  67  68 S13G22    29.98F HX  80
FOREST CITY *  SUNNY     75  64  69 S13       29.96F
IOWA FALLS *     N/A     75  66  73 S10       30.01F
$$

IAZ007>011-017>019-026>030-037>042-050>054-066-051700-
   NORTHEAST IOWA

CITY           SKY/WX    TMP DP  RH WIND       PRES   REMARKS
CEDAR RAPIDS   SUNNY     76  68  76 S12       30.04S
CHARLES CITY * SUNNY     77  70  78 S12       30.01F
CLINTON *      SUNNY     77  64  65 S9        30.09R
DECORAH *        N/A    N/A N/A N/A MISG        N/A
DUBUQUE        SUNNY     77  66  68 SW10      30.06S
MONTICELLO *   SUNNY     79  70  73 VRB7      30.04S HX  81
OELWEIN *      SUNNY     77  68  73 S12       30.04S
WATERLOO       MOSUNNY   78  66  66 S13       30.00F HX  80
$$

IAZ064-065-067-068-078-051700-
   EAST CENTRAL IOWA

CITY           SKY/WX    TMP DP  RH WIND       PRES   REMARKS
DAVENPORT      SUNNY     78  65  63 S10       30.06F HX  80
IOWA CITY      SUNNY     78  67  68 S10       30.04S HX  80
MT. PLEASANT * SUNNY     82  64  54 S9        30.05F HX  84
MUSCATINE *    SUNNY     81  64  57 S10       30.06R HX  82
QUAD CITIES    SUNNY     79  65  62 S6        30.05F HX  81
$$

IAZ062-063-075>077-085>089-095>099-051700-
   SOUTHEAST IOWA

CITY           SKY/WX    TMP DP  RH WIND       PRES   REMARKS
BURLINGTON     SUNNY     78  66  66 S8        30.06S HX  80
FAIRFIELD *    SUNNY     79  66  65 S8        30.04F HX  81
FORT MADISON * SUNNY     77  70  78 SE3       30.06S
KEOKUK *       PTSUNNY   79  70  73 VRB6      30.05R HX  81
OSKALOOSA *      N/A     79  68  69 S7        30.02F HX  81
CENTERVILLE *  SUNNY     79  70  73 S6        30.03F HX  81
OTTUMWA        MOSUNNY   79  70  74 S9        30.01F HX  82
WASHINGTON *   SUNNY     79  68  69 S8        30.05F HX  81
$$

ABBREVIATIONS USED IN REMARKS
   TC - TEMPERATURES IN CELSIUS
  WCI - WIND CHILL INDEX
   HX - HEAT INDEX
  VSB - VISIBILITY
$$




USA.gov is the U.S. government's official web portal to all federal, state and local government web resources and services.